{"data":{"norad_id":61921,"epoch":"2026-09-21T06:09:53.157600Z","epoch_age_seconds":120037,"freshness":"FRESH","line1":"1 61921U 24207K   26264.25686525  .00008291  00000+0  31046-3 0  9999","line2":"2 61921  42.9994 257.0990 0003062 275.0959  84.9543 15.27582654104630","mean_motion":15.27582654,"eccentricity":0.0003062,"inclination_deg":42.9994,"raan_deg":257.099,"arg_perigee_deg":275.0959,"mean_anomaly_deg":84.9543,"bstar":0.00031046,"rev_number":10463,"period_min":94.266584935966,"perigee_km":480.94025627116,"apogee_km":485.14204176962,"semimajor_km":6861.1781490204,"source":"CELESTRAK","updated_at":"2026-09-22T09:00:49.450302Z"}}